User: anonymous   Login
Location: Unspecified
(0.0000°N, 0.0000°E)
Time: 12:29:10
(UTC+01:00)
Language:

Cosmos 1933 - Orbit

View from above orbital plane
View from above orbital plane
View from above satellite
View from above satellite

Ground track
Ground track

The orbit data is extracted from the following two-line orbital elements,

1 18958U 88020A   17082.80074961 +.00000146 +00000-0 +86650-5 0  9993
2 18958 082.5321 186.2329 0010989 205.4295 154.6392 15.03174230557530
Epoch (UTC): 23 March 2017 19:13:04
Eccentricity: 0.0010989
inclination: 82.5321°
perigee height: 549 km
apogee height: 565 km
right ascension of ascending node: 186.2329°
argument of perigee: 205.4295°
revolutions per day: 15.03174230
mean anomaly at epoch: 154.6392°
orbit number at epoch: 55753

The dashed part of the orbit path shows where the satellite is in the earth's shadow,  

DLR